Date String (YYYY-MM-DD hh:mm:ss) UTC,Instrument flags,Ambient pressure (hPa),Sample flow (lpm),Bypass flow (lpm),Sample temperature (°C),Ambient temperature (°C),ASC tube jacket temperature (°C),LED temperature (°C),Box temperature (°C),Sample RH (%),Span deviation,Mass concentration (μg/m³),Mass concentration (μg/m³),Mass concentration (μg/m³)
DateTimeUTC,F1_M11,P_M11,Q1_M11,Q2_M11,T1_M11,T2_M11,T3_M11,T4_M11,T5_M11,U1_M11,ZSPAN_M11,X0_M11,X2_M11,X1_M11
2022-12-07 16:00:00,,0827.4,5.00,0.00,22.7,21.4,00.0,31.5,24.6,10.2,0000.0,0004.78,0002.24,0001.61
2022-12-07 16:01:00,,0827.4,5.00,0.00,22.7,21.4,00.0,31.5,24.6,10.4,0000.0,0004.89,0002.29,0001.63
2022-12-07 16:02:00,,0827.4,5.00,0.00,22.7,21.4,00.0,31.5,24.5,10.6,0000.0,0005.04,0002.38,0001.66
2022-12-07 16:03:00,,0827.4,5.00,0.00,22.7,21.4,00.0,31.5,24.5,10.5,0000.0,0005.38,0002.39,0001.69
2022-12-07 16:04:00,,0827.4,5.00,0.00,22.7,21.5,00.0,31.5,24.5,09.9,0000.0,0005.55,0002.39,0001.70
2022-12-07 16:05:00,,0827.3,5.00,0.00,22.7,21.5,00.0,31.5,24.5,10.0,0000.0,0005.36,0002.41,0001.71
2022-12-07 16:06:00,,0827.4,4.99,0.00,22.7,21.5,00.0,31.5,24.5,09.9,0000.0,0005.24,0002.38,0001.72
2022-12-07 16:07:00,,0827.3,5.00,0.00,22.7,21.5,00.0,31.5,24.5,10.1,0000.0,0005.12,0002.33,0001.72
2022-12-07 16:08:00,,0827.4,5.00,0.00,22.7,21.5,00.0,31.5,24.6,10.0,0000.0,0004.98,0002.34,0001.73
2022-12-07 16:09:00,,0827.4,5.00,0.00,22.7,21.5,00.0,31.5,24.6,09.9,0000.0,0004.99,0002.40,0001.73
2022-12-07 16:10:00,,0827.4,5.01,0.00,22.7,21.5,00.0,31.5,24.6,10.0,0000.0,0005.11,0002.45,0001.74
2022-12-07 16:11:00,,0827.4,5.00,0.00,22.7,21.5,00.0,31.5,24.6,10.1,0000.0,0005.28,0002.45,0001.75
2022-12-07 16:12:00,,0827.4,5.00,0.00,22.7,21.5,00.0,31.5,24.6,10.0,0000.0,0005.49,0002.46,0001.76
2022-12-07 16:13:00,,0827.4,4.99,0.00,22.7,21.5,00.0,31.6,24.7,09.9,0000.0,0005.45,0002.41,0001.77
2022-12-07 16:14:00,,0827.4,5.00,0.00,22.7,21.5,00.0,31.6,24.7,10.0,0000.0,0005.80,0002.42,0001.78
2022-12-07 16:15:00,,0827.3,5.00,0.00,22.7,21.5,00.0,31.6,24.7,10.0,0000.0,0005.31,0002.45,0001.80
2022-12-07 16:16:00,,0827.4,5.01,0.00,22.7,21.5,00.0,31.6,24.6,10.0,0000.0,0005.43,0002.50,0001.81
2022-12-07 16:17:00,,0827.4,5.00,0.00,22.7,21.5,00.0,31.6,24.6,10.7,0000.0,0005.53,0002.58,0001.89
2022-12-07 16:18:00,,0827.4,4.99,0.00,22.8,21.6,00.0,31.6,24.7,10.6,0000.0,0005.58,0002.64,0001.96
2022-12-07 16:19:00,,0827.4,4.99,0.00,22.8,21.6,00.0,31.6,24.7,10.4,0000.0,0005.64,0002.71,0002.02
2022-12-07 16:20:00,,0827.4,5.00,0.00,22.8,21.6,00.0,31.6,24.6,10.1,0000.0,0005.80,0002.79,0002.06
2022-12-07 16:21:00,,0827.5,4.99,0.00,22.8,21.6,00.0,31.6,24.7,10.3,0000.0,0005.86,0002.84,0002.10
2022-12-07 16:22:00,,0827.5,5.01,0.00,22.8,21.6,00.0,31.6,24.7,10.2,0000.0,0006.30,0002.84,0002.15
2022-12-07 16:23:00,,0827.5,5.01,0.00,22.8,21.6,00.0,31.6,24.7,10.0,0000.0,0007.74,0002.88,0002.18
2022-12-07 16:24:00,,0827.5,5.00,0.00,22.8,21.6,00.0,31.6,24.7,09.9,0000.0,0008.22,0002.92,0002.20
2022-12-07 16:25:00,,0827.5,5.00,0.00,22.8,21.6,00.0,31.6,24.7,10.0,0000.0,0008.57,0002.96,0002.22
2022-12-07 16:26:00,,0827.5,4.99,0.00,22.8,21.6,00.0,31.6,24.7,10.0,0000.0,0008.39,0002.96,0002.22
2022-12-07 16:27:00,,0827.5,5.00,0.00,22.8,21.7,00.0,31.6,24.7,10.0,0000.0,0008.37,0002.92,0002.23
2022-12-07 16:28:00,,0827.6,5.00,0.00,22.8,21.7,00.0,31.7,24.7,09.8,0000.0,0008.39,0002.89,0002.18
2022-12-07 16:29:00,,0827.5,5.00,0.00,22.9,21.7,00.0,31.7,24.7,09.9,0000.0,0008.52,0002.93,0002.14
2022-12-07 16:30:00,,0827.5,5.00,0.00,22.9,21.7,00.0,31.7,24.7,10.0,0000.0,0008.55,0002.93,0002.12
2022-12-07 16:31:00,,0827.5,5.00,0.00,22.9,21.7,00.0,31.7,24.7,10.0,0000.0,0008.52,0002.93,0002.11
2022-12-07 16:32:00,,0827.5,5.00,0.00,22.9,21.8,00.0,31.7,24.7,09.9,0000.0,0008.43,0002.89,0002.09
2022-12-07 16:33:00,,0827.5,5.01,0.00,22.9,21.8,00.0,31.7,24.8,09.7,0000.0,0008.30,0002.84,0002.07
2022-12-07 16:34:00,,0827.6,5.00,0.00,22.9,21.8,00.0,31.7,24.8,10.0,0000.0,0006.66,0002.83,0002.07
2022-12-07 16:35:00,,0827.5,5.00,0.00,22.9,21.8,00.0,31.7,24.8,09.9,0000.0,0005.92,0002.81,0002.08
2022-12-07 16:36:00,,0827.6,5.00,0.00,22.9,21.9,00.0,31.7,24.8,09.8,0000.0,0004.79,0002.75,0002.05
2022-12-07 16:37:00,,0827.6,4.99,0.00,23.0,21.9,00.0,31.8,24.8,09.6,0000.0,0004.78,0002.73,0002.03
2022-12-07 16:38:00,,0827.6,5.00,0.00,23.0,21.9,00.0,31.8,24.8,10.2,0000.0,0004.80,0002.74,0002.02
2022-12-07 16:39:00,,0827.5,5.00,0.00,23.0,21.9,00.0,31.8,24.8,09.8,0000.0,0005.02,0002.79,0002.03
2022-12-07 16:40:00,,0827.5,5.00,0.00,23.0,21.9,00.0,31.8,24.8,09.7,0000.0,0004.79,0002.72,0002.03
2022-12-07 16:41:00,,0827.5,5.00,0.00,23.0,21.9,00.0,31.8,24.9,09.9,0000.0,0004.77,0002.70,0002.03
2022-12-07 16:42:00,,0827.5,5.00,0.00,23.0,22.0,00.0,31.8,24.9,09.8,0000.0,0004.76,0002.70,0002.04
2022-12-07 16:43:00,,0827.5,5.00,0.00,23.0,22.0,00.0,31.8,24.9,09.9,0000.0,0004.69,0002.66,0002.04
2022-12-07 16:44:00,,0827.5,5.00,0.00,23.1,22.0,00.0,31.9,24.9,10.2,0000.0,0004.68,0002.68,0002.06
2022-12-07 16:45:00,,0827.5,5.00,0.00,23.1,22.0,00.0,31.9,24.9,10.0,0000.0,0004.70,0002.71,0002.07
2022-12-07 16:46:00,,0827.6,5.00,0.00,23.1,22.0,00.0,31.9,24.9,10.2,0000.0,0004.45,0002.71,0002.07
2022-12-07 16:47:00,,0827.6,5.00,0.00,23.1,22.0,00.0,31.9,24.9,10.2,0000.0,0004.48,0002.78,0002.12
2022-12-07 16:48:00,,0827.5,5.00,0.00,23.1,22.0,00.0,31.9,24.9,10.2,0000.0,0004.96,0002.87,0002.17
2022-12-07 16:49:00,,0827.6,4.99,0.00,23.1,22.1,00.0,31.9,24.9,09.8,0000.0,0004.97,0002.88,0002.18
2022-12-07 16:50:00,,0827.7,5.00,0.00,23.1,22.1,00.0,31.9,24.9,09.8,0000.0,0004.68,0002.83,0002.17
2022-12-07 16:51:00,,0827.7,5.00,0.00,23.2,22.1,00.0,32.0,24.9,09.9,0000.0,0004.82,0002.87,0002.19
2022-12-07 16:52:00,,0827.7,5.00,0.00,23.2,22.1,00.0,32.0,25.0,10.0,0000.0,0004.76,0002.87,0002.19
2022-12-07 16:53:00,,0827.8,5.02,0.00,23.2,22.1,00.0,32.0,25.0,10.1,0000.0,0004.74,0002.87,0002.19
2022-12-07 16:54:00,,0827.7,5.00,0.00,23.2,22.1,00.0,32.0,25.0,10.1,0000.0,0004.77,0002.89,0002.22
2022-12-07 16:55:00,,0827.7,4.99,0.00,23.2,22.1,00.0,32.0,25.0,10.1,0000.0,0004.77,0002.89,0002.22
2022-12-07 16:56:00,,0827.7,4.99,0.00,23.2,22.1,00.0,32.0,25.0,10.1,0000.0,0004.73,0002.88,0002.23
2022-12-07 16:57:00,,0827.8,5.01,0.00,23.2,22.1,00.0,32.0,25.0,09.9,0000.0,0004.66,0002.86,0002.23
2022-12-07 16:58:00,,0827.8,5.01,0.00,23.2,22.1,00.0,32.0,25.0,10.2,0000.0,0004.71,0002.85,0002.22
2022-12-07 16:59:00,,0827.7,5.00,0.00,23.2,22.1,00.0,32.0,25.0,10.2,0000.0,0004.32,0002.78,0002.19
